TimeCST,TemperatureF,Dew PointF,Humidity,Sea Level PressureIn,VisibilityMPH,Wind Direction,Wind SpeedMPH,Gust SpeedMPH,PrecipitationIn,Events,Conditions,WindDirDegrees,DateUTC
12:00 AM,66.2,66.2,100,30.05,6.2,East,4.6,-,N/A,,Mostly Cloudy,90,2013-09-01 06:00:00
1:00 AM,66.2,66.2,100,30.00,-9999.0,East,5.8,-,N/A,,Clear,90,2013-09-01 07:00:00
2:00 AM,68.0,64.4,88,29.97,-9999.0,ENE,8.1,-,N/A,,Clear,70,2013-09-01 08:00:00
3:00 AM,67,63,83,29.82,12,East,10.4,,,,Clear,90,2013-09-01 09:00:00
3:00 AM,68.0,62.6,83,29.96,-9999.0,East,10.4,-,N/A,,Clear,90,2013-09-01 09:00:00
4:00 AM,66.2,62.6,88,29.98,-9999.0,ESE,8.1,-,N/A,,Clear,110,2013-09-01 10:00:00
5:00 AM,64.4,62.6,94,30.00,-9999.0,NNW,4.6,-,N/A,,Clear,340,2013-09-01 11:00:00
6:00 AM,64,61,85,29.89,12,East,6.9,,,,Partly Cloudy,80,2013-09-01 12:00:00
6:00 AM,64.4,60.8,88,30.01,-9999.0,East,6.9,-,N/A,,Clear,80,2013-09-01 12:00:00
7:00 AM,68.0,60.8,78,30.03,-9999.0,East,2.3,-,N/A,,Clear,90,2013-09-01 13:00:00
8:00 AM,73.4,62.6,69,30.04,-9999.0,NW,2.3,-,N/A,,Clear,320,2013-09-01 14:00:00
9:00 AM,77,63,53,29.88,12,WNW,2.3,,,,Clear,300,2013-09-01 15:00:00
9:00 AM,77.0,62.6,61,30.05,-9999.0,WNW,2.3,-,N/A,,Clear,300,2013-09-01 15:00:00
10:00 AM,82.4,60.8,48,30.04,6.2,SSW,2.3,-,N/A,,Unknown,210,2013-09-01 16:00:00
11:00 AM,82.4,62.6,51,30.02,6.2,West,6.9,-,N/A,,Partly Cloudy,260,2013-09-01 17:00:00
12:00 PM,82.4,68.0,62,30.00,6.2,WSW,11.5,-,N/A,,Scattered Clouds,240,2013-09-01 18:00:00
1:00 PM,78.8,68.0,69,29.98,6.2,SW,13.8,-,N/A,,Mostly Cloudy,230,2013-09-01 19:00:00
1:40 PM,69.8,66.2,88,-9999,6.2,South,11.5,-,N/A,Rain-Thunderstorm,Light Thunderstorms and Rain,190,2013-09-01 19:40:00
2:00 PM,68.0,66.2,94,-9999,6.2,SE,5.8,-,N/A,Rain-Thunderstorm,Light Thunderstorms and Rain,130,2013-09-01 20:00:00
3:00 PM,66,65,95,29.87,12,SE,4.6,,,,Partly Cloudy,130,2013-09-01 21:00:00
3:00 PM,68.0,64.4,88,29.99,6.2,SE,4.6,-,N/A,,Mostly Cloudy,130,2013-09-01 21:00:00
4:00 PM,66.2,66.2,100,30.00,6.2,NE,3.5,-,N/A,,Mostly Cloudy,50,2013-09-01 22:00:00
5:00 PM,66.2,66.2,100,30.01,6.2,West,3.5,-,N/A,Rain,Light Rain,260,2013-09-01 23:00:00
6:00 PM,67,64,86,29.88,12,ENE,5.8,,,Rain,Light Rain,70,2013-09-02 00:00:00
6:00 PM,66.2,64.4,94,30.00,6.2,ENE,5.8,-,N/A,Rain,Light Rain,70,2013-09-02 00:00:00
7:00 PM,68.0,64.4,88,30.02,6.2,NE,4.6,-,N/A,Rain,Light Rain,50,2013-09-02 01:00:00
8:00 PM,66.2,64.4,94,30.04,-9999.0,SSW,2.3,-,N/A,,Clear,200,2013-09-02 02:00:00
9:00 PM,66,65,95,29.90,12,Calm,Calm,,,,Partly Cloudy,,2013-09-02 03:00:00
9:00 PM,66.2,64.4,94,30.04,6.2,Calm,Calm,-,N/A,,Mostly Cloudy,0,2013-09-02 03:00:00
10:00 PM,66.2,64.4,94,30.05,-9999.0,ENE,4.6,-,N/A,,Clear,70,2013-09-02 04:00:00
11:00 PM,66.2,62.6,88,30.04,-9999.0,NE,4.6,-,N/A,,Clear,50,2013-09-02 05:00:00